Location: Gregson
(46.0480°N, 112.8098°W)
Time: 16:26:17
(UTC+00:00)

N. Korean satellite - Visible Passes

Search period start: 16 August 2022 00:00
Search period end: 26 August 2022 00:00
Orbit: 433 x 470 km, 97.3° (Epoch: 15 August)

Date Brightness Start Highest point End Pass type
(mag) Time Alt. Az. Time Alt. Az. Time Alt. Az.
16 Aug 9.7 11:46:26 10° ENE 11:48:13 13° E 11:49:59 10° ESE visible
21 Aug 9.4 11:58:20 10° NE 12:00:51 18° E 12:03:20 10° SE visible
24 Aug 9.7 11:47:37 10° ENE 11:49:26 13° E 11:51:14 10° ESE visible
